WGS F4 (USA 233)

Last updated on Sun Jun 21 2026 00:03:05 GMT+0000 (Coordinated Universal Time)

1 38070U 12003A 26171.33826891 -.00000220 00000+0 00000+0 0 9994 2 38070 0.0194 36.9926 0000095 309.2912 132.4547 1.00272401 44189
UTC large
Height (km)
Speed (km/s)
/
Latitude / Longitude
Inclination (degrees)
Orbital Period (minutes)
Azimuth
Elevation
Range (km)
Doppler Factor

Next 0 passes for location: London (51.5072 / 0.1276)

No passes found over London.
WGS F4 (USA 233)